Estación de Linares 2
Ultimos registro cada 15 minutos 56
| N° | Estación | Fecha / Hora | Temperatura | Humedad | Lluvia | Velocidad | Dirección | Radiación | Presion |
| 56 | Linares 2 | 29-04-2026 14:00 | 16,7 | 88 | 0 | 0,4 | 256 | 315 | 1016,5 |
| 55 | Linares 2 | 29-04-2026 13:45 | 16,4 | 88 | 0 | 0,4 | 252 | 223 | 1016,9 |
| 54 | Linares 2 | 29-04-2026 13:30 | 16,4 | 88 | 0 | 0,4 | 252 | 223 | 1016,9 |
| 53 | Linares 2 | 29-04-2026 13:15 | 16,1 | 89 | 0 | 0 | 338 | 290 | 1016,7 |
| 52 | Linares 2 | 29-04-2026 13:00 | 15,7 | 90 | 0 | 0,9 | 221 | 248 | 1017 |
| 51 | Linares 2 | 29-04-2026 12:45 | 15,6 | 91 | 0 | 0,4 | 258 | 192 | 1017,2 |
| 50 | Linares 2 | 29-04-2026 12:30 | 15,6 | 91 | 0 | 0,4 | 258 | 192 | 1017,2 |
| 49 | Linares 2 | 29-04-2026 12:15 | 15,4 | 92 | 0 | 1,3 | 163 | 225 | 1017,4 |
| 48 | Linares 2 | 29-04-2026 12:00 | 15,4 | 92 | 0 | 0,9 | 201 | 200 | 1017,5 |
| 47 | Linares 2 | 29-04-2026 11:45 | 15,6 | 94 | 0 | 0,4 | 196 | 172 | 1017,9 |
| 46 | Linares 2 | 29-04-2026 11:30 | 15,6 | 94 | 0 | 0,4 | 196 | 172 | 1017,9 |
| 45 | Linares 2 | 29-04-2026 11:15 | 15,4 | 94 | 0 | 0,4 | 206 | 165 | 1017,9 |
| 44 | Linares 2 | 29-04-2026 11:00 | 15,2 | 95 | 0 | 0,9 | 209 | 506 | 1017,8 |
| 43 | Linares 2 | 29-04-2026 10:45 | 14,3 | 95 | 0 | 0,9 | 144 | 186 | 1018 |
| 42 | Linares 2 | 29-04-2026 10:30 | 14,3 | 95 | 0 | 0,9 | 144 | 186 | 1018 |
| 41 | Linares 2 | 29-04-2026 10:15 | 13,8 | 95 | 0 | 0,9 | 150 | 137 | 1018 |
| 40 | Linares 2 | 29-04-2026 10:00 | 13,7 | 95 | 0 | 0 | 175 | 86 | 1018,2 |
| 39 | Linares 2 | 29-04-2026 09:45 | 13,2 | 95 | 0 | 0 | 171 | 62 | 1017,9 |
| 38 | Linares 2 | 29-04-2026 09:30 | 13,2 | 95 | 0 | 0 | 171 | 62 | 1017,9 |
| 37 | Linares 2 | 29-04-2026 09:15 | 12,9 | 95 | 0 | 0,4 | 175 | 51 | 1017,6 |
| 36 | Linares 2 | 29-04-2026 09:00 | 12,5 | 95 | 0 | 0 | 153 | 37 | 1017,6 |
| 35 | Linares 2 | 29-04-2026 08:45 | 11,8 | 93 | 0 | 0 | 154 | 7 | 1017,1 |
| 34 | Linares 2 | 29-04-2026 08:30 | 11,8 | 93 | 0 | 0 | 154 | 7 | 1017,1 |
| 33 | Linares 2 | 29-04-2026 08:15 | 12,4 | 93 | 0 | 0 | 190 | 0 | 1017 |
| 32 | Linares 2 | 29-04-2026 08:00 | 12,6 | 94 | 0 | 0 | 190 | 0 | 1017 |
| 31 | Linares 2 | 29-04-2026 07:45 | 13,8 | 94 | 0 | 0 | 206 | 0 | 1017 |
| 30 | Linares 2 | 29-04-2026 07:30 | 13,8 | 94 | 0 | 0 | 206 | 0 | 1017 |
| 29 | Linares 2 | 29-04-2026 07:15 | 13,9 | 95 | 0,2 | 0 | 168 | 0 | 1017,3 |
| 28 | Linares 2 | 29-04-2026 07:00 | 13,8 | 94 | 0 | 0 | 316 | 0 | 1017,3 |
| 27 | Linares 2 | 29-04-2026 06:45 | 13,8 | 94 | 0 | 0,4 | 316 | 0 | 1017,4 |
| 26 | Linares 2 | 29-04-2026 06:30 | 13,8 | 94 | 0 | 0,4 | 316 | 0 | 1017,4 |
| 25 | Linares 2 | 29-04-2026 06:15 | 13,7 | 94 | 0 | 0 | 167 | 0 | 1017,3 |
| 24 | Linares 2 | 29-04-2026 06:00 | 13,5 | 94 | 0 | 0 | 160 | 0 | 1017,6 |
| 23 | Linares 2 | 29-04-2026 05:45 | 13,8 | 94 | 0 | 0 | 55 | 0 | 1017,5 |
| 22 | Linares 2 | 29-04-2026 05:30 | 13,8 | 94 | 0 | 0 | 55 | 0 | 1017,5 |
| 21 | Linares 2 | 29-04-2026 05:15 | 14 | 94 | 0 | 0 | 55 | 0 | 1017,4 |
| 20 | Linares 2 | 29-04-2026 05:00 | 14,2 | 94 | 0 | 0 | 19 | 0 | 1017,4 |
| 19 | Linares 2 | 29-04-2026 04:45 | 14,3 | 94 | 0 | 0 | 19 | 0 | 1017,7 |
| 18 | Linares 2 | 29-04-2026 04:30 | 14,3 | 94 | 0 | 0 | 19 | 0 | 1017,7 |
| 17 | Linares 2 | 29-04-2026 04:15 | 14,3 | 94 | 0 | 0 | 19 | 0 | 1017,8 |
| 16 | Linares 2 | 29-04-2026 04:00 | 14,3 | 94 | 0,2 | 0 | 354 | 0 | 1018,3 |
| 15 | Linares 2 | 29-04-2026 03:45 | 14,3 | 94 | 0 | 0,9 | 34 | 0 | 1017,8 |
| 14 | Linares 2 | 29-04-2026 03:30 | 14,3 | 94 | 0 | 0,9 | 34 | 0 | 1017,8 |
| 13 | Linares 2 | 29-04-2026 03:15 | 14,3 | 94 | 0,2 | 0,4 | 26 | 0 | 1017,9 |
| 12 | Linares 2 | 29-04-2026 03:00 | 14,3 | 94 | 0 | 0,9 | 27 | 0 | 1018 |
| 11 | Linares 2 | 29-04-2026 02:30 | 14,3 | 94 | 0,2 | 0,9 | 29 | 0 | 1017,9 |
| 10 | Linares 2 | 29-04-2026 02:15 | 14,3 | 94 | 0,2 | 0,9 | 34 | 0 | 1018 |
| 9 | Linares 2 | 29-04-2026 02:00 | 14,3 | 93 | 0,2 | 1,8 | 36 | 0 | 1018 |
| 8 | Linares 2 | 29-04-2026 01:45 | 14,2 | 94 | 0,2 | 1,3 | 26 | 0 | 1018,1 |
| 7 | Linares 2 | 29-04-2026 01:30 | 14,2 | 93 | 0,6 | 2,2 | 48 | 0 | 1017,9 |
| 6 | Linares 2 | 29-04-2026 01:15 | 14,2 | 93 | 0,4 | 1,3 | 21 | 0 | 1018,1 |
| 5 | Linares 2 | 29-04-2026 01:00 | 14,2 | 93 | 1 | 1,8 | 34 | 0 | 1018,3 |
| 4 | Linares 2 | 29-04-2026 00:45 | 14,2 | 93 | 0,4 | 1,3 | 23 | 0 | 1018,2 |
| 3 | Linares 2 | 29-04-2026 00:30 | 14,1 | 93 | 0,4 | 1,8 | 17 | 0 | 1018,2 |
| 2 | Linares 2 | 29-04-2026 00:15 | 14 | 93 | 0,6 | 1,3 | 31 | 0 | 1018,5 |
| 1 | Linares 2 | 29-04-2026 00:00 | 13,9 | 93 | 1 | 0,4 | 39 | 0 | 1018,5 |